EW8836 Weather Reports


Display with metric or nautical units.
time (UTC)temp
F
wind
direction
speed
MPH
gust
MPH
rain 1hr
in
rain 24hr
in
rain mn
in
humidity
%
barometer
mb
20260906143052 93 356 0.0 4.0 0.00 0.00 0.00 44 1018.1
20260906141600 93 188 1.0 5.0 0.00 0.00 0.00 45 1018.2
20260906140107 90 181 1.0 4.0 0.00 0.00 0.00 47 1018.5
20260906134601 92 257 0.0 4.0 0.00 0.00 0.00 45 1018.6
20260906133054 92 101 0.0 4.0 0.00 0.00 0.00 45 1018.6
20260906131602 93 226 1.0 4.0 0.00 0.00 0.00 42 1018.7
20260906130057 94 246 0.0 2.0 0.00 0.00 0.00 44 1018.6
20260906124549 91 103 0.0 4.0 0.00 0.00 0.00 46 1018.8
20260906123048 90 313 0.0 4.0 0.00 0.00 0.00 50 1018.7
20260906121601 86 250 0.0 1.0 0.00 0.00 0.00 55 1018.8
20260906120105 84 342 0.0 0.0 0.00 0.00 0.00 57 1018.6
20260906114550 84 326 0.0 1.0 0.00 0.00 0.00 57 1018.9
20260906113107 84 353 0.0 2.0 0.00 0.00 0.00 57 1019.2
20260906111554 84 264 0.0 1.0 0.00 0.00 0.00 57 1019.4
20260906110057 84 2 0.0 1.0 0.00 0.00 0.00 56 1019.6
20260906104551 84 236 0.0 2.0 0.00 0.00 0.00 56 1019.8
20260906103055 84 320 1.0 3.0 0.00 0.00 0.00 56 1020.0
20260906101558 83 276 0.0 2.0 0.00 0.00 0.00 60 1020.1
20260906100059 80 319 0.0 2.0 0.00 0.00 0.00 64 1020.2
20260906094557 79 66 0.0 2.0 0.00 0.00 0.00 67 1020.4
20260906093100 77 64 0.0 2.0 0.00 0.00 0.00 70 1020.4
20260906091550 74 64 0.0 0.0 0.00 0.00 0.00 74 1020.4
20260906090104 73 71 0.0 1.0 0.00 0.00 0.00 73 1020.4
20260906084603 72 238 0.0 1.0 0.00 0.00 0.00 76 1020.6
20260906083100 70 226 0.0 1.0 0.00 0.00 0.00 81 1021.0
20260906081558 68 224 0.0 1.0 0.00 0.00 0.00 81 1020.9
20260906080052 68 236 0.0 0.0 0.00 0.00 0.00 81 1021.2
20260906074603 67 125 0.0 1.0 0.00 0.00 0.00 85 1021.4
20260906073057 64 226 0.0 1.0 0.00 0.00 0.00 91 1021.4
20260906071600 62 231 0.0 1.0 0.00 0.00 0.00 91 1021.2
20260906070049 62 249 0.0 0.0 0.00 0.00 0.00 94 1021.3
20260906064603 60 249 0.0 0.0 0.00 0.00 0.00 97 1021.5
20260906063101 58 237 0.0 2.0 0.00 0.00 0.00 97 1021.6
20260906061547 57 102 0.0 1.0 0.00 0.00 0.00 97 1021.5
20260906060106 56 236 0.0 0.0 0.00 0.00 0.00 97 1021.7
20260906053102 56 193 0.0 0.0 0.00 0.00 0.00 96 1021.8
20260906051600 56 266 0.0 0.0 0.00 0.00 0.00 96 1021.6
20260906050050 56 148 0.0 0.0 0.00 0.00 0.00 97 1021.5
20260906044601 56 148 0.0 0.0 0.00 0.00 0.00 96 1021.6
20260906043056 56 148 0.0 0.0 0.00 0.00 0.00 95 1021.6
20260906041604 57 148 0.0 0.0 0.00 0.00 0.00 96 1021.7
20260906040103 57 148 0.0 1.0 0.00 0.00 0.00 96 1021.8
20260906034606 57 212 0.0 0.0 0.00 0.00 0.00 95 1021.9
20260906033058 57 212 0.0 1.0 0.00 0.00 0.00 95 1022.0
20260906031557 57 136 0.0 1.0 0.00 0.00 0.00 94 1022.1
20260906030109 57 233 0.0 1.0 0.00 0.00 0.00 94 1022.1
20260906024634 58 226 0.0 0.0 0.00 0.00 0.00 93 1021.9
20260906023106 58 227 0.0 0.0 0.00 0.00 0.00 93 1021.9
20260906021558 58 158 0.0 0.0 0.00 0.00 0.00 92 1021.8
20260906020105 59 158 0.0 0.0 0.00 0.00 0.00 92 1022.0
20260906014548 59 168 0.0 0.0 0.00 0.00 0.00 92 1022.1
20260906013102 59 165 0.0 0.0 0.00 0.00 0.00 92 1022.0
20260906011554 59 165 0.0 0.0 0.00 0.00 0.00 91 1022.2
20260906010058 60 190 0.0 0.0 0.00 0.00 0.00 91 1022.3
20260906004549 60 190 0.0 0.0 0.00 0.00 0.00 90 1022.5
20260906003056 60 123 0.0 0.0 0.00 0.00 0.00 90 1022.6
20260906001554 61 123 0.0 0.0 0.00 0.00 0.00 89 1022.8
20260906000055 61 122 0.0 0.0 0.00 0.00 0.00 89 1022.7
20260905234550 61 123 0.0 0.0 0.00 0.00 0.00 88 1022.8
20260905233102 61 123 0.0 0.0 0.00 0.00 0.00 89 1022.8
20260905231558 61 123 0.0 0.0 0.00 0.00 0.00 89 1022.8
20260905230046 62 123 0.0 0.0 0.00 0.00 0.00 89 1022.9
20260905224604 62 123 0.0 0.0 0.00 0.00 0.00 88 1023.0
20260905223055 63 123 0.0 0.0 0.00 0.00 0.00 87 1022.9
20260905221549 63 123 0.0 0.0 0.00 0.00 0.00 87 1023.0
20260905220058 63 122 0.0 0.0 0.00 0.00 0.00 86 1022.8
20260905214601 64 112 0.0 0.0 0.00 0.00 0.00 85 1022.8
20260905213110 65 112 0.0 0.0 0.00 0.00 0.00 84 1022.9
20260905211612 66 112 0.0 0.0 0.00 0.00 0.00 82 1023.1
20260905210111 67 8 0.0 0.0 0.00 0.00 0.00 81 1023.1
20260905204606 67 8 0.0 0.0 0.00 0.00 0.00 80 1023.2
20260905203051 68 8 0.0 1.0 0.00 0.00 0.00 79 1023.2
20260905201600 67 8 0.0 0.0 0.00 0.00 0.00 80 1023.1
20260905200057 68 8 0.0 0.0 0.00 0.00 0.00 78 1023.1
20260905194556 68 8 0.0 0.0 0.00 0.00 0.00 78 1022.9
20260905193103 68 8 0.0 0.0 0.00 0.00 0.00 77 1022.7
20260905191547 70 8 0.0 0.0 0.00 0.00 0.00 74 1022.5
20260905184555 73 47 0.0 1.0 0.00 0.00 0.00 70 1022.4
20260905183118 74 53 0.0 1.0 0.00 0.00 0.00 68 1022.4
20260905181548 75 54 0.0 2.0 0.00 0.00 0.00 66 1022.3
20260905180108 77 65 0.0 3.0 0.00 0.00 0.00 64 1022.2
20260905174553 78 49 0.0 2.0 0.00 0.00 0.00 62 1022.3
20260905173110 79 68 0.0 3.0 0.00 0.00 0.00 61 1022.2
20260905171556 80 53 0.0 3.0 0.00 0.00 0.00 60 1022.1
20260905170100 81 23 1.0 3.0 0.00 0.00 0.00 58 1022.2
20260905164631 82 273 0.0 2.0 0.00 0.00 0.00 58 1022.3
20260905163051 82 1 0.0 1.0 0.00 0.00 0.00 57 1022.4
20260905161603 83 37 0.0 3.0 0.00 0.00 0.00 57 1022.3
20260905160104 82 6 0.0 4.0 0.00 0.00 0.00 58 1022.2
20260905154548 82 184 0.0 6.0 0.00 0.00 0.00 58 1022.2
20260905153106 81 67 2.0 7.0 0.00 0.00 0.00 59 1022.3
20260905151543 82 41 2.0 6.0 0.00 0.00 0.00 58 1022.4
20260905150055 82 60 1.0 4.0 0.00 0.00 0.00 59 1022.6
20260905144558 82 84 1.0 4.0 0.00 0.00 0.00 57 1022.6